DB0RV-13 Weather Reports


Display with metric or nautical units.
time (UTC)temp
F
wind
direction
speed
MPH
gust
MPH
rain 1hr
in
rain 24hr
in
rain mn
in
humidity
%
barometer
mb
20260509154001 71 343 2.0 0.0 0.00 0.00 0.00 33 1012.8
20260509153502 73 13 2.0 0.0 0.00 0.00 0.00 34 1013.0
20260509153004 72 20 2.0 0.0 0.00 0.00 0.00 33 1013.0
20260509152502 72 309 3.0 0.0 0.00 0.00 0.00 33 1013.1
20260509152001 72 207 2.0 0.0 0.00 0.00 0.00 34 1013.2
20260509151501 72 294 3.0 0.0 0.00 0.00 0.00 33 1013.2
20260509151002 72 195 3.0 0.0 0.00 0.00 0.00 34 1013.3
20260509150501 72 54 2.0 0.0 0.00 0.00 0.00 33 1013.2
20260509150002 72 80 2.0 0.0 0.00 0.00 0.00 34 1013.2
20260509145501 71 104 3.0 0.0 0.00 0.00 0.00 35 1013.3
20260509145002 71 228 4.0 0.0 0.00 0.00 0.00 36 1013.4
20260509144501 71 186 3.0 0.0 0.00 0.00 0.00 36 1013.3
20260509144001 71 189 3.0 0.0 0.00 0.00 0.00 35 1013.3
20260509143501 70 157 2.0 0.0 0.00 0.00 0.00 35 1013.4
20260509143001 70 189 4.0 0.0 0.00 0.00 0.00 37 1013.4
20260509142502 70 165 4.0 0.0 0.00 0.00 0.00 36 1013.5
20260509142001 70 52 2.0 0.0 0.00 0.00 0.00 36 1013.5
20260509141502 71 105 3.0 0.0 0.00 0.00 0.00 37 1013.5
20260509141001 70 300 3.0 0.0 0.00 0.00 0.00 37 1013.7
20260509140502 70 122 6.0 0.0 0.00 0.00 0.00 37 1013.7
20260509140002 69 97 2.0 0.0 0.00 0.00 0.00 36 1013.8
20260509135502 70 71 4.0 0.0 0.00 0.00 0.00 37 1013.7
20260509135001 69 153 6.0 0.0 0.00 0.00 0.00 38 1013.9
20260509134501 71 94 4.0 0.0 0.00 0.00 0.00 37 1013.8
20260509134002 69 113 5.0 0.0 0.00 0.00 0.00 39 1013.9
20260509133502 69 248 6.0 0.0 0.00 0.00 0.00 40 1014.0
20260509133002 69 118 4.0 0.0 0.00 0.00 0.00 38 1014.1
20260509132502 70 100 3.0 0.0 0.00 0.00 0.00 40 1014.2
20260509132002 69 145 4.0 0.0 0.00 0.00 0.00 39 1014.2
20260509131501 69 101 4.0 0.0 0.00 0.00 0.00 39 1014.2
20260509131002 69 109 9.0 0.0 0.00 0.00 0.00 40 1014.3
20260509130501 69 134 3.0 0.0 0.00 0.00 0.00 42 1014.3
20260509130003 69 185 5.0 0.0 0.00 0.00 0.00 42 1014.5
20260509125502 69 260 2.0 0.0 0.00 0.00 0.00 42 1014.5
20260509125002 68 109 3.0 0.0 0.00 0.00 0.00 42 1014.5
20260509124502 69 119 3.0 0.0 0.00 0.00 0.00 42 1014.5
20260509124001 69 170 4.0 0.0 0.00 0.00 0.00 42 1014.7
20260509123502 69 161 7.0 0.0 0.00 0.00 0.00 40 1014.6
20260509123001 68 91 5.0 0.0 0.00 0.00 0.00 41 1014.7
20260509122501 67 155 5.0 0.0 0.00 0.00 0.00 41 1014.8
20260509122002 67 139 5.0 0.0 0.00 0.00 0.00 43 1014.8
20260509121501 68 192 6.0 0.0 0.00 0.00 0.00 46 1014.8
20260509121002 69 201 2.0 0.0 0.00 0.00 0.00 43 1015.0
20260509120501 69 142 6.0 0.0 0.00 0.00 0.00 40 1015.0
20260509120002 68 117 4.0 0.0 0.00 0.00 0.00 41 1015.0
20260509115501 68 107 5.0 0.0 0.00 0.00 0.00 43 1015.0
20260509115002 67 196 1.0 0.0 0.00 0.00 0.00 44 1015.2
20260509114501 67 225 5.0 0.0 0.00 0.00 0.00 45 1015.2
20260509114002 68 200 6.0 0.0 0.00 0.00 0.00 44 1015.2
20260509113501 67 196 1.0 0.0 0.00 0.00 0.00 43 1015.3
20260509113002 69 117 4.0 0.0 0.00 0.00 0.00 42 1015.4
20260509112503 68 284 2.0 0.0 0.00 0.00 0.00 46 1015.4
20260509112001 67 190 4.0 0.0 0.00 0.00 0.00 48 1015.4
20260509111503 68 181 4.0 0.0 0.00 0.00 0.00 49 1015.5
20260509111001 68 293 3.0 0.0 0.00 0.00 0.00 46 1015.6
20260509110502 66 114 2.0 0.0 0.00 0.00 0.00 46 1015.6
20260509110002 66 259 2.0 0.0 0.00 0.00 0.00 48 1015.7
20260509105502 66 123 0.0 0.0 0.00 0.00 0.00 47 1015.6
20260509105001 66 211 3.0 0.0 0.00 0.00 0.00 49 1015.8
20260509104502 66 216 7.0 0.0 0.00 0.00 0.00 49 1015.9
20260509104001 66 286 0.0 0.0 0.00 0.00 0.00 47 1015.9
20260509103502 67 221 4.0 0.0 0.00 0.00 0.00 49 1016.0
20260509103001 66 0 0.0 0.0 0.00 0.00 0.00 50 1016.0
20260509102501 64 350 2.0 0.0 0.00 0.00 0.00 51 1016.0
20260509102001 65 26 4.0 0.0 0.00 0.00 0.00 49 1016.0
20260509101502 66 341 2.0 0.0 0.00 0.00 0.00 49 1016.1
20260509101002 65 154 0.0 0.0 0.00 0.00 0.00 52 1016.1
20260509100501 64 204 2.0 0.0 0.00 0.00 0.00 52 1016.1
20260509100002 65 296 3.0 0.0 0.00 0.00 0.00 51 1016.2
20260509095501 65 288 1.0 0.0 0.00 0.00 0.00 55 1016.2
20260509095002 64 294 1.0 0.0 0.00 0.00 0.00 56 1016.2
20260509094501 64 331 2.0 0.0 0.00 0.00 0.00 54 1016.2
20260509094001 63 8 2.0 0.0 0.00 0.00 0.00 56 1016.1
20260509093501 62 334 2.0 0.0 0.00 0.00 0.00 56 1016.2
20260509093002 64 340 3.0 0.0 0.00 0.00 0.00 55 1016.2
20260509092502 65 269 6.0 0.0 0.00 0.00 0.00 54 1016.3
20260509092001 62 0 0.0 0.0 0.00 0.00 0.00 57 1016.3
20260509091502 63 245 2.0 0.0 0.00 0.00 0.00 57 1016.3
20260509091001 63 239 1.0 0.0 0.00 0.00 0.00 60 1016.4
20260509090502 62 0 0.0 0.0 0.00 0.00 0.00 59 1016.5
20260509090001 63 239 3.0 0.0 0.00 0.00 0.00 60 1016.4
20260509085502 62 242 4.0 0.0 0.00 0.00 0.00 60 1016.4
20260509085001 61 228 3.0 0.0 0.00 0.00 0.00 60 1016.5
20260509084501 61 222 4.0 0.0 0.00 0.00 0.00 62 1016.4
20260509084002 61 237 6.0 0.0 0.00 0.00 0.00 61 1016.4
20260509083501 60 324 4.0 0.0 0.00 0.00 0.00 62 1016.6
20260509083002 60 277 4.0 0.0 0.00 0.00 0.00 62 1016.6
20260509082501 60 183 3.0 0.0 0.00 0.00 0.00 64 1016.6
20260509082002 60 206 8.0 0.0 0.00 0.00 0.00 65 1016.6
20260509081501 59 162 4.0 0.0 0.00 0.00 0.00 63 1016.6
20260509081002 60 283 2.0 0.0 0.00 0.00 0.00 63 1016.6
20260509080501 59 230 4.0 0.0 0.00 0.00 0.00 66 1016.6
20260509080002 59 239 2.0 0.0 0.00 0.00 0.00 64 1016.5
20260509075502 59 0 0.0 0.0 0.00 0.00 0.00 64 1016.6
20260509075002 58 181 4.0 0.0 0.00 0.00 0.00 64 1016.5
20260509074502 58 164 4.0 0.0 0.00 0.00 0.00 66 1016.4
20260509074001 59 164 1.0 0.0 0.00 0.00 0.00 64 1016.5
20260509073502 60 185 2.0 0.0 0.00 0.00 0.00 62 1016.5
20260509073001 58 243 0.0 0.0 0.00 0.00 0.00 63 1016.5
20260509072502 57 304 0.0 0.0 0.00 0.00 0.00 63 1016.5
20260509072001 57 159 1.0 0.0 0.00 0.00 0.00 66 1016.6
20260509071502 56 332 1.0 0.0 0.00 0.00 0.00 67 1016.6
20260509071002 56 89 2.0 0.0 0.00 0.00 0.00 67 1016.3
20260509070502 55 82 1.0 0.0 0.00 0.00 0.00 68 1016.3
20260509070002 55 32 5.0 0.0 0.00 0.00 0.00 69 1016.3
20260509065501 55 40 3.0 0.0 0.00 0.00 0.00 69 1016.3
20260509065002 54 82 2.0 0.0 0.00 0.00 0.00 69 1016.3
20260509064501 53 84 4.0 0.0 0.00 0.00 0.00 70 1016.3
20260509064017 54 75 3.0 0.0 0.00 0.00 0.00 71 1016.3
20260509063502 53 60 2.0 0.0 0.00 0.00 0.00 70 1016.3
20260509063002 53 42 3.0 0.0 0.00 0.00 0.00 70 1016.4
20260509062501 53 42 3.0 0.0 0.00 0.00 0.00 72 1016.4
20260509062002 53 30 3.0 0.0 0.00 0.00 0.00 72 1016.3
20260509061502 52 23 2.0 0.0 0.00 0.00 0.00 73 1016.2
20260509061002 51 40 4.0 0.0 0.00 0.00 0.00 73 1016.3
20260509060502 51 70 2.0 0.0 0.00 0.00 0.00 74 1016.3
20260509060002 51 44 2.0 0.0 0.00 0.00 0.00 75 1016.3
20260509055501 51 58 2.0 0.0 0.00 0.00 0.00 76 1016.4
20260509055002 51 34 1.0 0.0 0.00 0.00 0.00 78 1016.3
20260509054501 50 74 2.0 0.0 0.00 0.00 0.00 77 1016.2
20260509053502 50 73 4.0 0.0 0.00 0.00 0.00 80 1016.1
20260509053001 49 74 4.0 0.0 0.00 0.00 0.00 81 1016.0
20260509052502 49 76 4.0 0.0 0.00 0.00 0.00 81 1016.0
20260509052002 49 64 5.0 0.0 0.00 0.00 0.00 82 1015.8
20260509051502 49 58 4.0 0.0 0.00 0.00 0.00 82 1015.9
20260509051001 49 66 5.0 0.0 0.00 0.00 0.00 81 1015.8
20260509050502 49 79 4.0 0.0 0.00 0.00 0.00 81 1015.8
20260509050001 49 98 3.0 0.0 0.00 0.00 0.00 81 1015.8
20260509045502 49 91 3.0 0.0 0.00 0.00 0.00 82 1015.8
20260509045001 48 86 2.0 0.0 0.00 0.00 0.00 82 1015.7
20260509044501 48 108 2.0 0.0 0.00 0.00 0.00 83 1015.7
20260509044002 48 137 3.0 0.0 0.00 0.00 0.00 83 1015.6
20260509043501 48 148 2.0 0.0 0.00 0.00 0.00 83 1015.7
20260509043002 48 165 2.0 0.0 0.00 0.00 0.00 83 1015.7
20260509042501 48 184 2.0 0.0 0.00 0.00 0.00 83 1015.8
20260509042002 49 202 2.0 0.0 0.00 0.00 0.00 81 1015.9
20260509041501 49 184 2.0 0.0 0.00 0.00 0.00 80 1015.8
20260509041001 49 0 0.0 0.0 0.00 0.00 0.00 81 1015.8
20260509040501 49 175 1.0 0.0 0.00 0.00 0.00 78 1015.8
20260509040001 50 334 2.0 0.0 0.00 0.00 0.00 77 1015.7
20260509035502 50 4 3.0 0.0 0.00 0.00 0.00 77 1015.6
20260509035001 50 347 4.0 0.0 0.00 0.00 0.00 78 1015.6
20260509034502 50 346 7.0 0.0 0.00 0.00 0.00 78 1015.6
20260509034001 50 336 5.0 0.0 0.00 0.00 0.00 78 1015.6
20260509033502 50 338 5.0 0.0 0.00 0.00 0.00 77 1015.7
20260509033001 50 328 4.0 0.0 0.00 0.00 0.00 77 1015.7
20260509032501 50 330 3.0 0.0 0.00 0.00 0.00 77 1015.7
20260509032001 50 330 4.0 0.0 0.00 0.00 0.00 76 1015.7
20260509031501 51 343 2.0 0.0 0.00 0.00 0.00 77 1015.6
20260509031002 51 334 4.0 0.0 0.00 0.00 0.00 75 1015.7
20260509030501 51 24 3.0 0.0 0.00 0.00 0.00 76 1015.7
20260509030002 50 22 4.0 0.0 0.00 0.00 0.00 77 1015.7
20260509025502 50 35 4.0 0.0 0.00 0.00 0.00 76 1015.6
20260509025001 50 42 4.0 0.0 0.00 0.00 0.00 76 1015.5
20260509024501 50 68 3.0 0.0 0.00 0.00 0.00 75 1015.5
20260509024002 50 41 3.0 0.0 0.00 0.00 0.00 76 1015.5
20260509023501 51 29 4.0 0.0 0.00 0.00 0.00 75 1015.5
20260509023001 50 16 3.0 0.0 0.00 0.00 0.00 77 1015.5
20260509022502 51 325 3.0 0.0 0.00 0.00 0.00 77 1015.5
20260509022001 50 332 3.0 0.0 0.00 0.00 0.00 79 1015.5
20260509021501 51 328 2.0 0.0 0.00 0.00 0.00 76 1015.5
20260509021002 51 334 2.0 0.0 0.00 0.00 0.00 75 1015.5
20260509020501 52 354 2.0 0.0 0.00 0.00 0.00 73 1015.4
20260509020002 52 43 2.0 0.0 0.00 0.00 0.00 74 1015.4
20260509015502 51 30 1.0 0.0 0.00 0.00 0.00 76 1015.4
20260509014502 51 339 2.0 0.0 0.00 0.00 0.00 76 1015.4
20260509014001 51 17 1.0 0.0 0.00 0.00 0.00 76 1015.4
20260509013502 51 309 0.0 0.0 0.00 0.00 0.00 75 1015.4
20260509013002 52 337 2.0 0.0 0.00 0.00 0.00 73 1015.4
20260509012501 51 18 3.0 0.0 0.00 0.00 0.00 74 1015.3
20260509012002 51 65 2.0 0.0 0.00 0.00 0.00 74 1015.2
20260509011507 51 121 2.0 0.0 0.00 0.00 0.00 74 1015.3
20260509011001 51 96 4.0 0.0 0.00 0.00 0.00 74 1015.1
20260509010502 51 78 5.0 0.0 0.00 0.00 0.00 74 1015.2
20260509010002 51 89 4.0 0.0 0.00 0.00 0.00 74 1015.2
20260509005501 51 80 4.0 0.0 0.00 0.00 0.00 74 1015.1
20260509005002 51 84 2.0 0.0 0.00 0.00 0.00 74 1015.2
20260509004502 52 133 2.0 0.0 0.00 0.00 0.00 73 1015.3
20260509004001 52 105 3.0 0.0 0.00 0.00 0.00 72 1015.1
20260509003501 53 68 4.0 0.0 0.00 0.00 0.00 72 1015.2
20260509003002 53 48 2.0 0.0 0.00 0.00 0.00 71 1015.1
20260509002501 53 60 4.0 0.0 0.00 0.00 0.00 72 1015.1
20260509002001 53 56 4.0 0.0 0.00 0.00 0.00 70 1015.3
20260509001502 53 36 7.0 0.0 0.00 0.00 0.00 69 1015.2
20260509001001 54 42 6.0 0.0 0.00 0.00 0.00 68 1015.3
20260509000501 54 34 4.0 0.0 0.00 0.00 0.00 67 1015.4
20260509000002 55 54 2.0 0.0 0.00 0.00 0.00 66 1015.6
20260508235501 55 58 2.0 0.0 0.00 0.00 0.00 66 1015.6
20260508235002 55 6 2.0 0.0 0.00 0.00 0.00 65 1015.6
20260508234502 55 20 4.0 0.0 0.00 0.00 0.00 65 1015.5
20260508234001 55 348 2.0 0.0 0.00 0.00 0.00 65 1015.7
20260508233502 55 331 2.0 0.0 0.00 0.00 0.00 66 1015.7
20260508233002 55 352 4.0 0.0 0.00 0.00 0.00 66 1015.7
20260508232501 55 333 3.0 0.0 0.00 0.00 0.00 66 1015.7
20260508232002 55 2 6.0 0.0 0.00 0.00 0.00 66 1015.7
20260508231502 55 341 6.0 0.0 0.00 0.00 0.00 66 1015.7
20260508231001 55 340 6.0 0.0 0.00 0.00 0.00 64 1015.8
20260508230502 56 351 5.0 0.0 0.00 0.00 0.00 64 1015.8
20260508230002 56 1 5.0 0.0 0.00 0.00 0.00 64 1015.9
20260508225501 55 5 3.0 0.0 0.00 0.00 0.00 65 1016.1
20260508225002 55 291 3.0 0.0 0.00 0.00 0.00 67 1016.1
20260508224502 55 268 5.0 0.0 0.00 0.00 0.00 66 1016.2
20260508224001 55 301 4.0 0.0 0.00 0.00 0.00 66 1016.2
20260508223502 56 12 5.0 0.0 0.00 0.00 0.00 64 1015.8
20260508223002 55 14 6.0 0.0 0.00 0.00 0.00 65 1015.6
20260508222501 55 21 7.0 0.0 0.00 0.00 0.00 65 1015.5
20260508222002 55 28 7.0 0.0 0.00 0.00 0.00 65 1015.5
20260508221502 55 33 8.0 0.0 0.00 0.00 0.00 65 1015.6
20260508221001 55 23 8.0 0.0 0.00 0.00 0.00 65 1015.4
20260508220502 55 29 9.0 0.0 0.00 0.00 0.00 66 1015.5
20260508220002 55 45 6.0 0.0 0.00 0.00 0.00 65 1015.4
20260508215501 55 40 8.0 0.0 0.00 0.00 0.00 66 1015.3
20260508215002 55 23 6.0 0.0 0.00 0.00 0.00 65 1015.4
20260508214502 55 24 7.0 0.0 0.00 0.00 0.00 65 1015.4
20260508214002 57 26 7.0 0.0 0.00 0.00 0.00 63 1015.6
20260508213502 56 21 4.0 0.0 0.00 0.00 0.00 65 1015.5
20260508213002 57 351 5.0 0.0 0.00 0.00 0.00 63 1015.4
20260508212501 57 359 4.0 0.0 0.00 0.00 0.00 63 1015.1
20260508212002 56 23 6.0 0.0 0.00 0.00 0.00 64 1015.2
20260508211502 57 21 5.0 0.0 0.00 0.00 0.00 64 1015.2
20260508211001 56 9 4.0 0.0 0.00 0.00 0.00 64 1015.1
20260508210501 56 26 6.0 0.0 0.00 0.00 0.00 65 1015.1
20260508210002 56 47 5.0 0.0 0.00 0.00 0.00 64 1015.0
20260508205501 56 36 6.0 0.0 0.00 0.00 0.00 65 1015.0
20260508205001 56 28 8.0 0.0 0.00 0.00 0.00 64 1015.1
20260508204502 56 24 6.0 0.0 0.00 0.00 0.00 64 1014.8
20260508204001 56 39 6.0 0.0 0.00 0.00 0.00 64 1014.8
20260508203502 57 44 5.0 0.0 0.00 0.00 0.00 63 1014.9
20260508203002 57 50 6.0 0.0 0.00 0.00 0.00 63 1015.0
20260508202501 57 34 6.0 0.0 0.00 0.00 0.00 62 1014.9
20260508202002 57 40 5.0 0.0 0.00 0.00 0.00 62 1014.8
20260508201502 57 47 3.0 0.0 0.00 0.00 0.00 62 1014.8
20260508201001 57 41 6.0 0.0 0.00 0.00 0.00 61 1014.8
20260508200501 58 46 4.0 0.0 0.00 0.00 0.00 61 1014.8
20260508200002 58 52 5.0 0.0 0.00 0.00 0.00 60 1014.7
20260508195502 58 41 4.0 0.0 0.00 0.00 0.00 60 1014.7
20260508195002 58 39 4.0 0.0 0.00 0.00 0.00 59 1014.6
20260508194502 59 46 6.0 0.0 0.00 0.00 0.00 58 1014.6
20260508194002 59 57 6.0 0.0 0.00 0.00 0.00 58 1014.3
20260508193502 59 52 6.0 0.0 0.00 0.00 0.00 58 1014.4
20260508193002 59 45 4.0 0.0 0.00 0.00 0.00 57 1014.4
20260508192501 60 38 5.0 0.0 0.00 0.00 0.00 56 1014.3
20260508192002 60 28 5.0 0.0 0.00 0.00 0.00 56 1014.4
20260508191502 60 41 5.0 0.0 0.00 0.00 0.00 56 1014.2
20260508191001 60 45 5.0 0.0 0.00 0.00 0.00 55 1014.0
20260508190502 60 31 3.0 0.0 0.00 0.00 0.00 55 1014.0
20260508190001 60 48 3.0 0.0 0.00 0.00 0.00 55 1013.9
20260508185502 61 40 4.0 0.0 0.00 0.00 0.00 54 1013.8
20260508185001 61 43 4.0 0.0 0.00 0.00 0.00 53 1013.7
20260508184501 61 35 4.0 0.0 0.00 0.00 0.00 53 1013.7
20260508184002 62 53 3.0 0.0 0.00 0.00 0.00 52 1013.7
20260508183502 62 58 6.0 0.0 0.00 0.00 0.00 51 1013.6
20260508183002 62 63 5.0 0.0 0.00 0.00 0.00 51 1013.5
20260508182501 62 64 5.0 0.0 0.00 0.00 0.00 50 1013.5
20260508182002 63 87 5.0 0.0 0.00 0.00 0.00 50 1013.3
20260508181502 63 82 5.0 0.0 0.00 0.00 0.00 49 1013.2
20260508181003 63 70 9.0 0.0 0.00 0.00 0.00 48 1013.2
20260508180501 64 74 5.0 0.0 0.00 0.00 0.00 48 1013.2
20260508180002 64 59 6.0 0.0 0.00 0.00 0.00 47 1013.1
20260508175501 65 77 7.0 0.0 0.00 0.00 0.00 47 1012.9
20260508175002 65 60 7.0 0.0 0.00 0.00 0.00 46 1012.9
20260508174502 65 56 7.0 0.0 0.00 0.00 0.00 46 1012.9
20260508174001 65 74 4.0 0.0 0.00 0.00 0.00 46 1012.9
20260508173502 66 67 6.0 0.0 0.00 0.00 0.00 46 1012.9
20260508173002 65 93 6.0 0.0 0.00 0.00 0.00 45 1012.9
20260508172503 65 97 6.0 0.0 0.00 0.00 0.00 45 1012.8
20260508172002 66 88 4.0 0.0 0.00 0.00 0.00 45 1012.7
20260508171502 66 51 7.0 0.0 0.00 0.00 0.00 45 1012.7
20260508171001 66 46 4.0 0.0 0.00 0.00 0.00 44 1012.7
20260508170503 67 105 3.0 0.0 0.00 0.00 0.00 44 1012.8
20260508170002 66 96 4.0 0.0 0.00 0.00 0.00 43 1012.7
20260508165501 66 61 10.0 0.0 0.00 0.00 0.00 44 1012.8
20260508165003 67 33 6.0 0.0 0.00 0.00 0.00 43 1012.7
20260508164502 67 58 6.0 0.0 0.00 0.00 0.00 44 1012.6
20260508164003 67 49 5.0 0.0 0.00 0.00 0.00 42 1012.7
20260508163501 66 29 6.0 0.0 0.00 0.00 0.00 43 1012.6
20260508163003 66 41 6.0 0.0 0.00 0.00 0.00 41 1012.7
20260508162501 67 63 7.0 0.0 0.00 0.00 0.00 42 1012.6
20260508162002 67 45 6.0 0.0 0.00 0.00 0.00 43 1012.7
20260508161501 66 86 2.0 0.0 0.00 0.00 0.00 42 1012.7
20260508161002 66 41 6.0 0.0 0.00 0.00 0.00 44 1012.8
20260508160501 66 71 8.0 0.0 0.00 0.00 0.00 44 1012.8
20260508160002 66 86 2.0 0.0 0.00 0.00 0.00 40 1012.8
20260508155502 66 68 5.0 0.0 0.00 0.00 0.00 41 1012.8
20260508155002 67 38 8.0 0.0 0.00 0.00 0.00 43 1012.8
20260508154502 66 27 8.0 0.0 0.00 0.00 0.00 43 1012.7